Doylestown, PA

11:32 AM EDT on July 20, 2017 (GMT -0400)
Doylestown

Weather History for KDYL - June, 2013

Change the Weather History Date:

Monday, June 17, 2013

  Actual Average (KTTN) Record (KTTN)
Temperature  
Mean Temperature 74 °F -  
Max Temperature 86 °F 77 °F 96 °F (1939)
Min Temperature 64 °F 58 °F 47 °F (1926)
Cooling Degree Days 9    
Growing Degree Days 24 (Base 50)    
Moisture  
Dew Point 64 °F    
Average Humidity 74    
Maximum Humidity 97    
Minimum Humidity 49    
Precipitation  
Precipitation 0.00 in - - ()
Sea Level Pressure  
Sea Level Pressure 29.89 in    
Wind  
Wind Speed 4 mph (SW)    
Max Wind Speed 12 mph    
Max Gust Speed 23 mph    
Visibility 10 miles    
Events      
Averages and records for this station are not official NWS values.
T = Trace of Precipitation, MM = Missing Value Source: NWS Daily Summary

Daily Weather History Graph

Daily Weather History Graph

Search for Another Location

Airport or City:

Trip Planner

Search our weather history database for the weather conditions in past years. The results will help you decide how hot, cold, wet, or windy it might be!

Date:

Astronomy

Jun. 17, 2013 Rise Set
Actual Time 5:30 AM EDT 8:32 PM EDT
Civil Twilight 4:57 AM EDT 9:06 PM EDT
Nautical Twilight 4:14 AM EDT 9:48 PM EDT
Astronomical Twilight 3:25 AM EDT 10:37 PM EDT
Moon 2:08 PM EDT (6/17) 1:05 AM EDT (6/17)
Length of Visible Light 16h 09m
Length of Day
15h 02m
First Quarter, 60% of the Moon is Illuminated
Jun 17
First Quarter
Jun 23
Full
Jun 30
Last Quarter
Jul 8
New
Jul 15
First Quarter

Hourly Weather History & Observations

Time (EDT) Temp. Heat Index Dew Point Humidity Pressure Visibility Wind Dir Wind Speed Gust Speed Precip Events Conditions
12:54 AM 64.9 °F - 63.0 °F 93% 29.87 in 10.0 mi South 3.5 mph - N/A   Clear
1:54 AM 66.0 °F - 64.0 °F 93% 29.88 in 10.0 mi Calm Calm - N/A   Clear
2:54 AM 64.9 °F - 64.0 °F 97% 29.88 in 10.0 mi South 4.6 mph - N/A   Clear
3:54 AM 66.0 °F - 64.0 °F 93% 29.88 in 10.0 mi Calm Calm - N/A   Clear
4:54 AM 64.0 °F - 63.0 °F 96% 29.89 in 10.0 mi Calm Calm - N/A   Clear
5:54 AM 64.0 °F - 63.0 °F 96% 29.90 in 8.0 mi Calm Calm - N/A   Clear
6:54 AM 66.0 °F - 64.0 °F 93% 29.91 in 10.0 mi SW 3.5 mph - N/A   Clear
7:54 AM 71.1 °F - 64.0 °F 78% 29.92 in 10.0 mi SW 4.6 mph - N/A   Clear
8:54 AM 75.0 °F - 64.9 °F 71% 29.92 in 10.0 mi Variable 4.6 mph - N/A   Clear
9:54 AM 77.0 °F - 64.9 °F 66% 29.91 in 10.0 mi WSW 5.8 mph - N/A   Clear
10:54 AM 80.1 °F 81.9 °F 64.9 °F 60% 29.89 in 10.0 mi Variable 3.5 mph - N/A   Clear
11:54 AM 81.0 °F 83.0 °F 66.0 °F 60% 29.89 in 10.0 mi WNW 6.9 mph - N/A   Scattered Clouds
12:54 PM 82.0 °F 83.8 °F 64.9 °F 56% 29.89 in 10.0 mi Variable 5.8 mph - N/A   Clear
1:54 PM 82.0 °F 83.4 °F 64.0 °F 54% 29.88 in 10.0 mi WSW 8.1 mph - N/A   Partly Cloudy
2:54 PM 84.9 °F 86.1 °F 64.0 °F 49% 29.86 in 10.0 mi SW 8.1 mph - N/A   Partly Cloudy
3:54 PM 84.0 °F 84.9 °F 63.0 °F 49% 29.85 in 10.0 mi WSW 9.2 mph 17.3 mph N/A   Clear
4:54 PM 84.9 °F 86.6 °F 64.9 °F 51% 29.86 in 10.0 mi WNW 11.5 mph 23.0 mph N/A   Mostly Cloudy
5:54 PM 79.0 °F - 66.0 °F 64% 29.85 in 10.0 mi SSE 3.5 mph - N/A   Scattered Clouds
6:54 PM 75.9 °F - 64.9 °F 69% 29.86 in 10.0 mi Calm Calm - N/A   Clear
7:54 PM 75.9 °F - 64.9 °F 69% 29.87 in 10.0 mi SSE 3.5 mph - N/A   Clear
8:54 PM 75.0 °F - 64.0 °F 69% 29.88 in 10.0 mi Variable 5.8 mph - N/A   Clear
9:54 PM 71.1 °F - 64.0 °F 78% 29.90 in 10.0 mi SSW 3.5 mph - N/A   Clear
10:54 PM 70.0 °F - 64.0 °F 81% 29.91 in 10.0 mi SSW 4.6 mph - N/A   Clear
11:54 PM 68.0 °F - 64.0 °F 87% 29.91 in 10.0 mi WSW 3.5 mph - N/A   Clear